FW7372 Weather Reports


time (UTC)temp
F
wind
direction
speed
knots
gust
knots
rain 1hr
in
rain 24hr
in
rain mn
in
humidity
%
barometer
mb
20240715210054 84 44 7.0 11.3 0.00 0.00 0.00 77 1024.9
20240715205553 84 44 7.8 11.3 0.00 0.00 0.00 77 1024.9
20240715205052 84 31 7.0 11.3 0.00 0.00 0.00 76 1024.8
20240715204551 84 42 7.8 11.3 0.00 0.00 0.00 76 1025.0
20240715204050 85 47 7.0 11.3 0.00 0.00 0.00 75 1025.0
20240715203549 85 41 7.0 11.3 0.00 0.00 0.00 74 1025.0
20240715203048 85 33 7.0 11.3 0.00 0.00 0.00 75 1024.7
20240715201515 85 42 6.1 13.0 0.00 0.00 0.00 74 1024.8
20240715200459 85 37 6.1 12.2 0.00 0.00 0.00 75 1024.7
20240715195958 85 43 7.0 12.2 0.00 0.00 0.00 74 1024.8
20240715195457 85 38 7.8 12.2 0.00 0.00 0.00 73 1024.8
20240715194956 85 32 6.1 12.2 0.00 0.00 0.00 74 1024.7
20240715193939 86 36 6.1 12.2 0.00 0.00 0.00 75 1024.9
20240715193438 85 34 7.0 12.2 0.00 0.00 0.00 76 1024.7
20240715192937 86 44 7.0 12.2 0.00 0.00 0.00 75 1024.8
20240715192436 86 38 7.8 12.2 0.00 0.00 0.00 74 1024.8
20240715191934 86 38 7.0 12.2 0.00 0.00 0.00 74 1025.0
20240715191433 86 49 7.0 12.2 0.00 0.00 0.00 74 1024.8
20240715190933 86 47 6.1 13.9 0.00 0.00 0.00 75 1024.9
20240715190432 86 36 7.8 13.9 0.00 0.00 0.00 73 1024.9
20240715185932 86 31 7.8 11.3 0.00 0.00 0.00 72 1025.1
20240715185431 86 37 7.8 11.3 0.00 0.00 0.00 72 1025.1
20240715184931 86 53 6.1 13.0 0.00 0.00 0.00 72 1025.3
20240715183915 87 37 7.8 12.2 0.00 0.00 0.00 71 1025.1
20240715182859 87 42 7.8 12.2 0.00 0.00 0.00 71 1025.2
20240715182358 87 37 6.1 12.2 0.00 0.00 0.00 72 1025.2
20240715181858 87 34 7.0 12.2 0.00 0.00 0.00 73 1025.1
20240715181357 87 42 7.8 12.2 0.00 0.00 0.00 72 1025.5
20240715180858 87 33 7.8 12.2 0.00 0.00 0.00 72 1025.2
20240715180356 87 29 7.8 12.2 0.00 0.00 0.00 72 1025.6
20240715175856 87 43 7.0 12.2 0.00 0.00 0.00 71 1025.5
20240715175356 87 28 8.7 12.2 0.00 0.00 0.00 71 1025.6
20240715174856 87 41 6.1 12.2 0.00 0.00 0.00 71 1025.8
20240715173324 88 24 7.8 13.9 0.00 0.00 0.00 71 1025.6
20240715172824 88 37 7.8 13.9 0.00 0.00 0.00 70 1025.8
20240715172322 88 51 7.0 12.2 0.00 0.00 0.00 71 1025.9
20240715171822 88 37 7.0 12.2 0.00 0.00 0.00 70 1025.9
20240715171322 88 45 7.0 12.2 0.00 0.00 0.00 69 1025.9
20240715170820 88 34 6.1 12.2 0.00 0.00 0.00 69 1026.2
20240715165805 88 52 6.1 11.3 0.00 0.00 0.00 70 1026.1
20240715164749 88 41 7.0 11.3 0.00 0.00 0.00 68 1026.2
20240715163732 88 51 7.0 12.2 0.00 0.00 0.00 69 1025.9
20240715163233 89 32 7.0 12.2 0.00 0.00 0.00 69 1026.2
20240715162732 88 42 7.0 12.2 0.00 0.00 0.00 70 1026.3
20240715162232 88 27 7.8 12.2 0.00 0.00 0.00 69 1026.1
20240715161216 88 37 7.0 12.2 0.00 0.00 0.00 71 1026.2
20240715160714 89 34 7.0 12.2 0.00 0.00 0.00 70 1026.2
20240715160215 88 35 7.8 12.2 0.00 0.00 0.00 71 1026.3
20240715155714 88 60 6.1 13.0 0.00 0.00 0.00 71 1026.3
20240715155214 88 32 7.0 13.0 0.00 0.00 0.00 71 1026.2
20240715154713 88 34 7.8 13.0 0.00 0.00 0.00 71 1026.5
20240715154213 88 38 7.8 13.0 0.00 0.00 0.00 71 1026.2
20240715153712 89 34 7.0 13.0 0.00 0.00 0.00 70 1026.4
20240715153212 88 26 7.0 13.0 0.00 0.00 0.00 72 1026.5
20240715152712 88 27 7.0 13.0 0.00 0.00 0.00 71 1026.2
20240715152212 88 40 7.0 13.0 0.00 0.00 0.00 71 1026.4
20240715151711 88 39 7.0 13.0 0.00 0.00 0.00 71 1026.4
20240715151211 89 33 7.8 13.0 0.00 0.00 0.00 71 1026.2
20240715150710 88 37 7.0 13.0 0.00 0.00 0.00 71 1026.5
20240715150210 89 33 7.0 13.0 0.00 0.00 0.00 70 1026.5
20240715144638 88 38 7.0 10.4 0.00 0.00 0.00 70 1026.6
20240715144138 88 34 7.8 10.4 0.00 0.00 0.00 70 1026.7
20240715143637 89 35 7.8 10.4 0.00 0.00 0.00 70 1026.5
20240715143137 89 27 6.1 10.4 0.00 0.00 0.00 68 1026.2
20240715142636 89 36 6.1 10.4 0.00 0.00 0.00 70 1026.4
20240715142136 89 30 7.0 10.4 0.00 0.00 0.00 69 1026.3
20240715141635 89 35 7.0 10.4 0.00 0.00 0.00 68 1026.5
20240715135548 88 47 6.1 13.0 0.00 0.00 0.00 70 1026.3
20240715135048 89 47 5.2 13.0 0.00 0.00 0.00 71 1026.5
20240715134547 88 24 6.1 13.0 0.00 0.00 0.00 72 1026.3
20240715134046 88 36 5.2 13.0 0.00 0.00 0.00 71 1026.5
20240715133545 89 48 6.1 13.0 0.00 0.00 0.00 70 1026.9
20240715132015 87 58 6.1 13.0 0.00 0.00 0.00 71 1026.6
20240715131514 87 27 5.2 13.0 0.00 0.00 0.00 71 1026.4
20240715131014 87 30 6.1 13.0 0.00 0.00 0.00 71 1026.7
20240715130513 87 41 7.0 12.2 0.00 0.00 0.00 71 1026.7
20240715130013 87 37 7.0 12.2 0.00 0.00 0.00 72 1026.7
20240715125512 87 45 7.0 12.2 0.00 0.00 0.00 73 1026.6
20240715125012 87 48 6.1 12.2 0.00 0.00 0.00 74 1026.6
20240715124512 87 39 7.0 10.4 0.00 0.00 0.00 73 1026.8
20240715124012 87 40 5.2 11.3 0.00 0.00 0.00 73 1026.5
20240715123511 86 47 7.0 17.4 0.00 0.00 0.00 74 1026.7
20240715122456 86 37 7.8 12.2 0.00 0.00 0.00 74 1026.6
20240715120924 84 58 5.2 11.3 0.00 0.00 0.00 77 1026.3
20240715114837 83 58 4.3 11.3 0.00 0.00 0.00 78 1026.3
20240715114337 83 59 4.3 11.3 0.00 0.00 0.00 77 1026.1
20240715113836 84 59 4.3 11.3 0.00 0.00 0.00 76 1026.3
20240715112821 85 31 7.8 11.3 0.00 0.00 0.00 76 1026.1
20240715112320 85 38 6.1 11.3 0.00 0.00 0.00 78 1026.2
20240715110749 84 36 7.0 11.3 0.00 0.00 0.00 78 1026.0
20240715105733 84 43 6.1 10.4 0.00 0.00 0.00 79 1025.9
20240715105233 83 57 5.2 10.4 0.00 0.00 0.00 79 1026.1
20240715104732 83 59 4.3 10.4 0.00 0.00 0.00 79 1026.1
20240715104232 83 37 4.3 10.4 0.00 0.00 0.00 80 1026.0
20240715103731 82 44 4.3 10.4 0.00 0.00 0.00 80 1025.7
20240715103231 82 49 4.3 10.4 0.00 0.00 0.00 80 1025.8
20240715102731 82 46 4.3 10.4 0.00 0.00 0.00 80 1025.5
20240715102230 82 36 5.2 10.4 0.00 0.00 0.00 80 1025.3
20240715101214 81 32 5.2 10.4 0.00 0.00 0.00 81 1025.3
20240715100714 81 56 2.6 10.4 0.00 0.00 0.00 82 1025.5
20240715100213 81 40 4.3 10.4 0.00 0.00 0.00 81 1025.3
20240715095157 81 69 4.3 10.4 0.00 0.00 0.00 81 1025.4
20240715094657 81 56 6.1 10.4 0.00 0.00 0.00 81 1025.3
20240715094156 81 40 4.3 11.3 0.00 0.00 0.00 82 1025.1
20240715093656 81 31 5.2 11.3 0.00 0.00 0.00 83 1025.2
20240715092640 81 37 7.0 11.3 0.00 0.00 0.00 83 1025.1
20240715092139 81 48 5.2 11.3 0.00 0.00 0.00 83 1024.9
20240715091123 81 31 5.2 11.3 0.00 0.00 0.00 83 1025.0
20240715090623 81 73 4.3 11.3 0.00 0.00 0.00 83 1024.8
20240715090122 81 42 4.3 11.3 0.00 0.00 0.00 83 1024.8
20240715085621 81 35 4.3 11.3 0.00 0.00 0.00 83 1024.8
20240715085121 81 35 5.2 11.3 0.00 0.00 0.00 83 1024.7
20240715084620 81 45 5.2 11.3 0.00 0.00 0.00 83 1024.7
20240715084120 81 47 4.3 11.3 0.00 0.00 0.00 83 1024.8
20240715083619 81 37 5.2 11.3 0.00 0.00 0.00 83 1024.8
20240715083119 81 38 5.2 11.3 0.00 0.00 0.00 83 1024.8
20240715082618 81 40 4.3 10.4 0.00 0.00 0.00 83 1024.7
20240715082118 81 36 7.0 10.4 0.00 0.00 0.00 83 1024.6
20240715081617 81 57 4.3 10.4 0.00 0.00 0.00 83 1024.5
20240715081117 81 40 6.1 10.4 0.00 0.00 0.00 83 1024.4
20240715080101 81 39 6.1 9.6 0.00 0.00 0.00 83 1024.3
20240715075044 81 35 5.2 9.6 0.00 0.00 0.00 83 1024.4
20240715074544 81 41 3.5 9.6 0.00 0.00 0.00 83 1024.7
20240715074043 81 32 4.3 9.6 0.00 0.00 0.00 82 1024.6
20240715073543 81 52 4.3 9.6 0.00 0.00 0.00 83 1024.6
20240715073042 81 36 4.3 9.6 0.00 0.00 0.00 82 1024.5
20240715072542 81 76 4.3 9.6 0.00 0.00 0.00 82 1024.5
20240715072042 81 59 4.3 11.3 0.00 0.00 0.00 82 1024.7
20240715071026 81 50 4.3 12.2 0.00 0.00 0.00 82 1024.8
20240715065454 81 37 6.1 12.2 0.00 0.00 0.00 82 1024.8
20240715064953 81 35 7.0 11.3 0.00 0.00 0.00 83 1024.8
20240715064451 81 45 7.0 11.3 0.00 0.00 0.00 82 1024.8
20240715063950 81 50 6.1 11.3 0.00 0.00 0.00 82 1024.9
20240715063450 81 39 4.3 11.3 0.00 0.00 0.00 81 1024.6
20240715062949 81 43 6.1 11.3 0.00 0.00 0.00 82 1024.8
20240715062449 81 49 5.2 11.3 0.00 0.00 0.00 82 1024.8
20240715061433 81 42 7.0 11.3 0.00 0.00 0.00 82 1024.9
20240715060932 81 40 6.1 11.3 0.00 0.00 0.00 81 1024.8
20240715060432 81 46 6.1 13.0 0.00 0.00 0.00 81 1024.7
20240715055931 81 36 7.0 13.0 0.00 0.00 0.00 82 1025.0
20240715055431 81 40 7.8 13.0 0.00 0.00 0.00 82 1024.9
20240715054930 81 42 6.1 13.0 0.00 0.00 0.00 82 1025.0
20240715054430 81 45 7.0 13.0 0.00 0.00 0.00 82 1024.9
20240715053929 81 51 7.0 13.0 0.00 0.00 0.00 82 1025.2
20240715053429 81 41 7.0 13.0 0.00 0.00 0.00 82 1025.2
20240715052928 81 41 7.8 13.0 0.00 0.00 0.00 81 1025.2
20240715051912 81 38 7.0 13.0 0.00 0.00 0.00 81 1025.3
20240715050341 82 43 8.7 13.0 0.00 0.00 0.00 80 1025.5
20240715045841 82 41 7.0 12.2 0.00 0.00 0.00 80 1025.5
20240715045340 82 39 7.8 12.2 0.00 0.00 0.00 80 1025.7
20240715044839 82 35 7.0 13.0 0.00 0.00 0.00 81 1025.9
20240715043308 82 35 8.7 13.9 0.00 0.00 0.00 82 1025.8
20240715042807 82 38 9.6 13.0 0.00 0.00 0.00 82 1025.7
20240715042307 82 37 9.6 12.2 0.00 0.00 0.00 82 1025.7
20240715041806 82 49 7.0 13.0 0.00 0.00 0.00 82 1025.9
20240715041306 82 35 8.7 13.0 0.00 0.00 0.00 82 1026.1
20240715040805 82 46 8.7 13.0 0.00 0.00 0.00 82 1026.2
20240715040305 82 41 7.0 13.9 0.00 0.00 0.00 82 1026.1
20240715035804 82 37 7.0 13.9 0.00 0.00 0.00 81 1026.3
20240715035307 82 31 8.7 13.9 0.00 0.00 0.00 79 1026.4
20240715034803 82 39 6.1 12.2 0.00 0.00 0.00 79 1026.6
20240715034303 82 36 7.0 13.0 0.00 0.00 0.00 80 1026.4
20240715033247 82 33 7.0 12.2 0.00 0.00 0.00 81 1026.5
20240715032231 82 62 6.1 12.2 0.00 0.00 0.00 81 1026.7
20240715031215 82 28 6.1 12.2 0.00 0.00 0.00 81 1026.8
20240715030714 82 45 5.2 10.4 0.00 0.00 0.00 81 1026.9
20240715025658 82 37 5.2 10.4 0.00 0.00 0.00 80 1026.8
20240715025158 82 31 5.2 10.4 0.00 0.00 0.00 81 1026.8
20240715024657 82 34 6.1 10.4 0.00 0.00 0.00 81 1026.8
20240715024157 82 41 6.1 10.4 0.00 0.00 0.00 82 1026.9
20240715023656 82 31 7.0 10.4 0.00 0.00 0.00 81 1026.9
20240715023157 82 42 5.2 13.9 0.00 0.00 0.00 81 1026.8
20240715021624 82 56 5.2 12.2 0.00 0.00 0.00 83 1026.9
20240715021123 82 38 4.3 12.2 0.00 0.00 0.00 83 1026.7
20240715020107 82 44 7.8 12.2 0.00 0.00 0.00 83 1026.7
20240715015051 82 40 7.8 12.2 0.00 0.00 0.00 82 1026.5
20240715014551 82 38 7.0 12.2 0.00 0.00 0.00 82 1026.6
20240715013535 82 40 7.8 12.2 0.00 0.00 0.00 82 1026.7
20240715012004 82 44 7.0 12.2 0.00 0.00 0.00 81 1026.5
20240715011503 82 41 8.7 12.2 0.00 0.00 0.00 82 1026.4
20240715011003 82 41 7.8 12.2 0.00 0.00 0.00 82 1026.5
20240715010502 82 38 7.8 12.2 0.00 0.00 0.00 83 1026.5
20240715010003 82 39 8.7 12.2 0.00 0.00 0.00 83 1026.5
20240715005502 82 40 6.1 12.2 0.00 0.00 0.00 83 1026.4
20240715004446 82 37 7.8 12.2 0.00 0.00 0.00 82 1026.4
20240715003946 83 40 8.7 12.2 0.00 0.00 0.00 82 1026.3
20240715002930 82 56 7.0 13.0 0.00 0.00 0.00 81 1026.4
20240715002430 82 41 7.8 13.0 0.00 0.00 0.00 82 1026.3
20240715001930 83 43 8.7 13.0 0.00 0.00 0.00 82 1025.9
20240715001429 83 41 8.7 13.0 0.00 0.00 0.00 82 1025.8
20240715000928 83 37 8.7 13.0 0.00 0.00 0.00 82 1026.1
20240715000431 83 49 8.7 13.0 0.00 0.00 0.00 82 1025.9
20240714235928 82 47 9.6 13.0 0.00 0.00 0.00 81 1025.9
20240714235428 83 39 8.7 13.0 0.00 0.00 0.00 82 1026.0
20240714234926 83 41 8.7 13.0 0.00 0.00 0.00 82 1025.9
20240714234426 83 42 8.7 13.0 0.00 0.00 0.00 81 1025.8
20240714233926 83 42 8.7 14.8 0.00 0.00 0.00 81 1025.7
20240714232910 83 50 9.6 13.9 0.00 0.00 0.00 81 1025.7
20240714232410 83 38 8.7 13.0 0.00 0.00 0.00 81 1025.8
20240714231909 83 42 8.7 13.0 0.00 0.00 0.00 81 1025.6
20240714231409 83 43 9.6 13.0 0.00 0.00 0.00 82 1025.7
20240714230908 83 46 8.7 14.8 0.00 0.00 0.00 83 1025.6
20240714230408 83 44 7.8 14.8 0.00 0.00 0.00 84 1025.7
20240714225907 83 36 7.8 13.0 0.00 0.00 0.00 85 1025.5
20240714224850 83 33 7.8 13.0 0.00 0.00 0.00 85 1025.4
20240714224351 83 31 7.0 13.0 0.00 0.00 0.00 85 1025.3
20240714223849 83 33 7.0 13.0 0.00 0.00 0.00 84 1025.1
20240714222329 83 38 6.1 13.0 0.00 0.00 0.00 84 1025.2
20240714221828 83 37 6.1 13.0 0.00 0.00 0.00 84 1025.1
20240714221328 83 34 7.0 13.0 0.00 0.00 0.00 84 1025.2
20240714220312 83 42 6.1 13.0 0.00 0.00 0.00 84 1024.9
20240714215812 83 34 7.0 13.0 0.00 0.00 0.00 83 1025.0
20240714215311 83 33 6.1 13.0 0.00 0.00 0.00 84 1024.8
20240714214811 83 31 6.1 13.0 0.00 0.00 0.00 84 1025.0
20240714213755 83 24 7.0 13.0 0.00 0.00 0.00 83 1024.9
20240714213255 83 38 7.8 13.0 0.00 0.00 0.00 82 1024.9
20240714212754 83 32 7.0 13.0 0.00 0.00 0.00 82 1024.8
20240714212254 83 34 7.0 13.0 0.00 0.00 0.00 81 1024.8
20240714210722 84 36 7.8 13.0 0.00 0.00 0.00 81 1024.8
20240714210222 84 31 7.0 13.0 0.00 0.00 0.00 81 1024.7